Tracking 28790 objects as of 19-Apr-2024
HD Live streaming from Space Station
objects crossing your sky now

H-2A R/B

Track H-2A R/B now!
10-day predictions
H-2A R/B is classified as:


NORAD ID: 43224
Int'l Code: 2018-021B
Perigee: 433.2 km
Apogee: 443.0 km
Inclination: 97.3 °
Period: 93.2 minutes
Semi major axis: 6809 km
RCS: Unknown
Launch date: February 27, 2018
Source: Japan (JPN)
Launch site: TANEGASHIMA SPACE CENTER (TNSTA)

Note: This is a ROCKET BODY
Your satellite tracking list
Your tracking list is empty




NASA's NSSDC Master Catalog

Two Line Element Set (TLE):
1 43224U 18021B   23245.89317196 0.00033000  00000-0  69799-3 0    09
2 43224  97.2544 338.6242 0007186  84.7348 275.2650 15.45129440    04
Source of the keplerian elements: McCants